CZ-6A DEB

Satellite information

Favourite Embed

Satellite Type and Status

DEBRISIN ORBIT

Key statistics

Satellite CZ-6A DEB at a glance.

Uptime

1072

Days in orbit

Revolutions

≈ 14.5

Per day

Orbit

SSO

Sun Synchronous Orbit

Inclination

98.6

Latest

Satellite identification and parameters

Extended collection of information and parameters for CZ-6A DEB.

Object identification

Identified? True

Debris? True

Object name: CZ-6A DEB

International designator: 2022-151WE

Object number (NORAD): 55213

Object ID (CCSDS): 55213

Country: PEOPLES REPUBLIC OF CHINA (PRC)

Current information (Y/N): Y

RCS size: SMALL

Orbital parameters

Period: 99.08 minutes

Inclination: 98.6422 deg

SMA: 7092.779 km

Apoapsis: 780.698 km

Periapsis: 648.59 km

RAAN: 331.5603 deg

Eccentricy: 0.00931279

Argument of periapsis: 339.0335 deg

Mean anomaly: 20.7052 deg

Mean motion: 14.53376431 rev/day

Mean motion (dot): 0.00009429 rev/day2

B* drag term: 0.00215018 1/REarth

Two-line elements (TLE)

Creation date: Oct. 18, 2025, 2:17 a.m.

Reference frame: TEME

Reference center: EARTH

Epoch: Oct. 17, 2025, 1:56 p.m. UTC

TLE line 0: 0 CZ-6A DEB

TLE line 1: 1 55213U 22151WE 25290.58079495 .00009429 00000-0 21502-2 0 9998

TLE line 2: 2 55213 98.6422 331.5603 0093128 339.0335 20.7052 14.53376431148847

Live tracking on map

Real-time ground track for satellite CZ-6A DEB.

In-orbit conjunctions

A list of the most updated potential collisions computed for object CZ-6A DEB.

Target Orbit TCA Probability of collision Miss distance Type
SOICAL (CONE) LEO 2025-06-14 23:46:24 0.0003839959 233.0 (m) PAYLOAD
CZ-6A DEB LEO 2025-01-09 15:19:29 0.0004492267 247.0 (m) DEBRIS

Associated space launch

Chinese satellite reported for atmospheric/ocean/environmental/spatial parameter research purposes, details TBD.

CZ-6A DEB was lifted into orbit during the mission ‘Long March 6A | Yunhai 3’, on board a Long March 6A space rocket.

The launch took place on Nov. 11, 2022, 10:52 p.m. from Launch Complex 9A.

For more information about the launch, click the button.

Launch to space Long March 6A | Yunhai 3
Long March 6A | Yunhai 3

Agency: N/A

Status: Launch Successful

Launch date: Nov. 11, 2022, 10:52 p.m. UTC

Rocket: Long March 6A

Launch pad: Launch Complex 9A

Location: Taiyuan Satellite Launch Center, People's Republic of China

...

Latest news about this satellite

There are no fresh news available about this satellite. Check back as we update our databases every day.


Newsletter sign-up

Weekly statistics, charts and insights to help you stay on top of the space industry.